Tracking 31027 objects as of 19-Jul-2025
HD Live streaming from Space Station
objects crossing your sky now

DELTA 1 DEB

Track DELTA 1 DEB now!
10-day predictions


NORAD ID: 7050
Int'l Code: 1973-086AS
Perigee: 1,400.8 km
Apogee: 1,476.2 km
Inclination: 101.6 °
Period: 114.5 minutes
Semi major axis: 7809 km
RCS: 0.1002 m2 (medium)
Launch date: November 6, 1973
Source: United States (US)
Launch site: AIR FORCE WESTERN TEST RANGE (AFWTR)

Note: This is SATELLITE DEBRIS
Your satellite tracking list
FENGYUN 1C DEB
Track 1 satellite(s)




NASA's NSSDC Master Catalog

Two Line Element Set (TLE):
1 07050U 73086AS  25199.44866836  .00000476  00000-0  30668-2 0  9999
2 07050 101.6294 177.8857 0048281 127.4772  26.8624 12.57963681356452
Source of the keplerian elements: AFSPC